Regional Weather Roundup
Issued by NWS

Home | Current Version | Previous Version | Graphics & Text | Print | Product List | Glossary On
Versions: 1 2 3 4 5 6 7 8 9 10 11 12 13 14 15 16 17 18 19 20 21 22 23 24 25 26 27 28 29 30 31 32 33 34 35 36 37 38 39 40 41 42 43 44 45 46 47 48 49 50
000
ASUS43 KBIS 230310
RWRND

NORTH DAKOTA REGIONAL WEATHER ROUNDUP
NATIONAL WEATHER SERVICE BISMARCK ND
1000 PM CDT FRI MAY 22 2015

NOTE: "FAIR" INDICATES FEW OR NO CLOUDS BELOW 12,000 FEET WITH NO
SIGNIFICANT WEATHER AND/OR OBSTRUCTIONS TO VISIBILITY.


NDZ001>003-009>011-017-230400-
NORTHWEST NORTH DAKOTA

CITY           SKY/WX    TMP DP  RH WIND       PRES   REMARKS
WILLISTON      PTCLDY    66  34  30 SE6       30.04R
MINOT          MOCLDY    61  38  42 CALM      30.07R
MINOT AFB      PTCLDY    63  36  36 S8        30.06R
$$

NDZ018>021-031>035-040>046-230400-
SOUTHWEST NORTH DAKOTA

CITY           SKY/WX    TMP DP  RH WIND       PRES   REMARKS
BISMARCK       PTCLDY    55  42  61 SE7       30.09R
DICKINSON      PTCLDY    54  35  48 SE12      30.06R
GARRISON         N/A     62  40  44 S3        30.08R
HETTINGER ARPT MOCLDY    55  35  47 SE9       30.09R
$$

NDZ004>008-012>016-024-026-027-054-230400-
NORTHEAST NORTH DAKOTA

CITY           SKY/WX    TMP DP  RH WIND       PRES   REMARKS
GRAND FORKS    PTCLDY    60  44  55 S8        30.11R
GRND FRKS AFB  CLEAR     61  41  48 S7        30.12R
DEVILS LAKE    CLEAR     63  39  42 SE6       30.11R
$$

NDZ022-023-025-028>030-036>039-047>053-230400-
SOUTHEAST NORTH DAKOTA

CITY           SKY/WX    TMP DP  RH WIND       PRES   REMARKS
FARGO          PTCLDY    66  40  38 SE6       30.13R
JAMESTOWN      PTCLDY    60  40  47 SE9       30.11R
$$




USA.gov is the U.S. government's official web portal to all federal, state and local government web resources and services.